STARLINK-5922, 55925

Orbit data source: Space-Track

STARLINK-5922, 55925 is a payload satellite owned by SpaceX/Seattle (US) in LEO that was launched on Fri, 17 Mar 2023 UTC via an FALCON 9 launch vehicle from the Air Force Western Test Range (AFWTR). Payload-class satellites include a variety of spacecraft equipped with specific instruments for various scientific and technological missions. These include communications satellites like Starlink; space stations such as the ISS; scientific satellites like the Hubble; Earth observation satellites from companies like Planet Labs, Umbra, and HawkEye 360; GPS; miniature CubeSats for education and research; and military/defense satellites.

Loading next visibility...
Identifier
55925, 2023-037M
Orbit
LEO
Country
Flag of USUS
Related business
Manufacturer
SpaceX/Seattle
Mission
Operational Commercial Communications
Bus & Motor
STARLINK, Unknown motor
Mass
305 kg wet, ~290 kg dry
Launch date (UTC)
2023-03-17 (3 years ago)
Launch vehicle
FALCON 9
Launch site
Air Force Western Test Range (AFWTR)
Object type
Payload
Rocket body
Debris
Shape & HBR
Box + 1 Pan, 10.1 m
Radar Cross Section
11.087 m², Large (>1 m²)

Expand to show TLE details & history
Last TLE update: 17 hours ago

TLE from 17 hours ago
0 STARLINK-5922
1 55925U 23037M   25349.86980932  .00000613  00000-0  59175-4 0  9990
2 55925  69.9990 155.7177 0002867 272.4481  87.6350 14.98332540150930
Epoch: 2025-12-15T20:52Z
TLE epoch observation values (Epoch: 2025-12-15T20:52:31.525Z)
Latitude
0.00001°
Longitude
117.82417°
Altitude
574.39 km
Speed
7.574 km/s
True Right ascension
10h 22m 52s
True Declination
0° 00' 00"
Sunlit
Object was in daylight at epoch
Visualization orbit readout
Latitude
Unknown
Longitude
Unknown
Altitude
Unknown
Speed
Unknown
Apparent Right ascension
Unknown
Apparent Declination
Unknown
Sunlit
N/A
Visualization observer readout
Local Sidereal Time
12:47:01
Azimuth
Unknown
Elevation
Unknown
Doppler factor
Unknown
Orbital elements
Apogee altitude
571.988 km
Perigee altitude
568.004 km
Semi-major axis
6,948.133 km
Eccentricity
0.00029
Inclination
69.999°
RAAN
155.7177°
Arg. of periapsis
272.4481°
True anomaly
87.66783°
Mean anomaly
87.635°
Eccentric anomaly
87.65141°
Mean motion
3.74749 °/min
Orbital period
96.06 mins
BSTAR
0.000059175
Loading maneuver chart data...
Computing Atmospheric mass density...
Loading historical data...
Loading historical data...
Loading historical data...
Loading historical data...
Loading historical data...
Loading historical data...
Loading historical data...

Documentation

Showing up to 5 results
|